CALIPSO

Last updated on Sun Apr 27 2025 00:03:23 GMT+0000 (Coordinated Universal Time)

1 29108U 06016B 25116.57034138 .00002984 00000+0 52845-3 0 9998 2 29108 98.4466 113.3311 0001800 101.3289 258.8117 14.68098877 11917

Satellite not in orbit

CALIPSO